Weather in Ayhal

Russia / Sakha (Yakutia) Republic     65°56′31″N   111°30′07″E
temp.,
°C
wind,
m/s
gust,
m/s
humid.,
%
clouds,
%
prec.,
mm/h
press.,
hPa
HPBL,
m
12 may, wed
wed1200:00−9n33957 0.0 102717
03:00−11n329638 0.0 102610
06:00−10nw229752 0.0 102513
09:00−5nnw24865 0.0 1023273
12:00−3nnw34815 0.0 1022454
15:00−2nw228037 0.0 1021408
18:00−1w2273100 0.0 1020357
21:00−3sw22855 0.0 102013
13 may, thu
thu1300:00−6sw329051 0.0 101914
03:00−6sw33875 0.0 101824
06:00−5sw497983 0.0 1016123
09:00−1sw6127391 0.0 1014336
12:00+1wsw81279100 0.0 1013439
15:00+4wsw81172100 0.0 1011728
18:00+5wsw51072100 0.0 1011672
21:00+3wsw4679100 0.0 101188
14 may, fri
fri1400:00+2ssw3374100 0.0 101020
03:00+1sw336991 0.0 100919
06:00+2ssw446546 0.0 100836
09:00+4s486063 0.0 1007287
12:00+7ssw91252100 0.0 10051207
15:00+5sw91280100 0.1 1004958
18:00+3sw71197100 0.1 1004688
21:00+3sw61194100 0.3 1004456
15 may, sat
sat1500:00+1wsw3694100 0.1 100477
03:00+1ssw2295100 0.1 100214
06:00+2s3598100 0.4 1000361
09:00+2ssw61398100 3.6 998759
12:00+2ssw71497100 3.3 996972
15:00+1w34100100 4.7 995165
18:00+2wsw4586100 0.0 995563
21:00+1w6790100 0.0 995467
16 may, sun
sun1600:000sw3381100 0.0 99540
03:00−2sw3582100 0.0 995102
06:00−3w2487100 0.1 997234
09:00−5nnw101186100 1.3 1000684
12:00−5nnw91184100 0.9 1003888
15:00−5nnw91082100 1.5 10051021
18:00−5nw8981100 0.4 10071064
21:00−6nw798093 0.6 1008812